Location: *
(43.3617°S, 174.5047°W)
Time: 04:45:40
(UTC+00:00)

Daily predictions for brighter satellites

Satellite Brightness Start Highest point End
(mag) Time Altitude Azimuth Time Altitude Azimuth Time Altitude Azimuth
Cosmos 2322 Rocket 3.7 04:34:39 10° WNW 04:39:49 35° SW 04:45:04 10° S
SL-4 R/B 1.8 04:37:37 10° SW 04:41:16 63° SSE 04:45:10 10° ENE
STARLINK-58 4.0 04:40:57 10° W 04:44:01 39° SSW 04:47:07 10° SE
STARLINK-1302 3.7 04:41:13 10° NW 04:45:24 80° NE 04:49:39 10° ESE
Cosmos 1805 Rocket 4.1 04:41:35 10° NNE 04:45:39 38° E 04:49:48 10° SSE
STARLINK-22 4.4 04:44:03 10° W 04:46:57 28° SSW 04:49:53 10° SE
STARLINK-1273 3.7 04:46:12 10° NW 04:50:24 86° NE 04:54:37 10° SE
Cosmos 2123 Rocket 4.0 04:45:04 10° S 04:51:20 68° E 04:57:33 10° NNE
Cosmos 1538 Rocket 4.5 04:48:06 10° NNW 04:53:18 64° WSW 04:58:32 10° SSE
COSMOS 2428 2.9 04:48:19 10° N 04:53:56 59° ENE 04:59:38 10° SSE
Cosmos 1812 3.7 04:50:57 10° SSE 04:54:19 26° ESE 04:57:38 10° NE
USA 234 3.7 04:48:07 10° SE 04:54:37 59° SSW 05:01:04 10° WNW
STARLINK-1288 3.7 04:51:08 10° NW 04:55:21 87° SSW 04:59:31 10° SE
Cosmos 1461 4.0 04:52:50 10° S 04:56:02 22° SE 04:59:09 10° E
ADEOS Rocket 3.7 04:49:28 10° NNE 04:57:03 86° WNW 05:05:00 10° SSW
ATLAS 5 CENTAUR R/B 3.7 04:53:41 10° NNE 04:59:31 27° ENE 05:04:51 11° ESE
STARLINK-1308 3.7 04:56:09 10° WNW 05:00:21 80° SW 05:04:21 12° SE
Cosmos 1535 Rocket 4.5 04:54:41 10° N 05:00:55 82° E 05:07:10 10° S
Meteor 1-31 Rocket 4.4 04:59:04 10° S 05:02:48 37° WSW 05:06:27 10° NW
Lacrosse 5 rocket 3.7 05:02:36 10° ENE 05:03:08 10° ENE 05:03:40 10° ENE
STARLINK-60 2.9 05:00:01 10° SW 05:03:19 75° SSE 05:06:34 10° ENE
COSMO-SKYMED 1 3.0 05:00:29 10° N 05:04:51 69° WNW 05:09:17 10° SSW
Cosmos 2237 Rocket 3.1 05:01:40 10° NNE 05:06:26 29° ENE 05:11:04 11° SE
STARLINK-61 3.5 05:03:06 10° NW 05:07:04 84° NE 05:10:27 14° SE
STARLINK-57 4.4 05:03:32 10° NNW 05:07:05 34° NE 05:09:54 15° ESE
CZ-4B R/B 3.7 05:02:44 10° SSE 05:07:51 38° E 05:12:59 10° NNE
STARLINK-49 4.4 05:05:07 10° NNW 05:08:38 33° NE 05:11:22 15° ESE
SL-16 R/B 4.4 05:05:27 10° W 05:09:29 19° SW 05:13:34 10° S
Cosmos 1633 3.6 05:06:08 10° NNW 05:09:40 47° WSW 05:13:14 10° S
Cosmos 1707 Rocket 4.0 05:05:27 10° S 05:09:41 40° ESE 05:13:50 10° NNE
Iridium 96 2.7 05:08:06 10° S 05:09:51 76° W 05:11:34 10° N
STARLINK-27 4.4 05:06:40 10° NNW 05:10:13 34° NE 05:12:53 16° ESE
STARLINK-1304 3.8 05:06:07 10° WNW 05:10:19 70° SSW 05:13:54 14° SE
STARLINK-74 4.3 05:08:17 10° NNW 05:11:51 35° NE 05:14:28 16° ESE
STARLINK-1286 3.9 05:08:25 10° WNW 05:12:37 65° SSW 05:16:08 15° SE
STARLINK-39 4.3 05:09:53 10° NNW 05:13:29 36° NE 05:16:02 17° ESE
Meteor 2-20 Rocket 4.5 05:07:34 10° S 05:13:49 67° E 05:19:59 10° NNE
Cosmos 2228 Rocket 3.8 05:10:06 10° SSW 05:14:38 61° W 05:19:04 10° N
STARLINK-31 4.2 05:11:29 10° NNW 05:15:07 38° NE 05:17:37 18° ESE
STARLINK-69 4.0 05:13:12 10° NNW 05:16:53 43° NE 05:19:23 18° ESE
USA 116 4.3 05:13:13 10° NNE 05:18:00 79° ESE 05:23:18 10° S
STARLINK-21 4.1 05:14:43 10° NNW 05:18:23 41° NE 05:20:47 19° ESE
Cosmos 1371 Rocket 4.3 05:13:56 10° S 05:19:11 47° ESE 05:24:22 10° NE
Cosmos 1934 Rocket 4.4 05:13:34 10° NNW 05:19:54 72° W 05:26:22 10° S
STARLINK-45 3.9 05:16:27 10° NNW 05:20:11 47° NE 05:22:35 20° ESE
STARLINK-70 3.9 05:18:02 10° NNW 05:21:47 46° NE 05:24:06 21° ESE
SL-16 R/B 3.8 05:19:41 10° NE 05:22:26 14° E 05:22:27 14° E
STARLINK-1048 4.4 05:18:48 10° NNW 05:22:40 38° NE 05:25:03 20° E
STARLINK-76 3.9 05:19:35 10° NNW 05:23:18 45° NE 05:25:32 21° ESE
STARLINK-1029 4.5 05:20:31 10° W 05:23:19 27° SSW 05:25:14 16° SSE
STARLINK-71 3.9 05:19:32 10° NNW 05:23:29 50° NE 05:25:57 21° ESE
Cosmos 1862 Rocket 4.5 05:19:39 10° SSE 05:23:36 28° ESE 05:27:30 10° NE
Cosmos 158 Rocket 4.0 05:18:57 10° N 05:24:04 69° ENE 05:29:24 10° SSE
STARLINK-23 3.9 05:21:12 10° NNW 05:24:56 47° NE 05:27:06 22° ESE
STARLINK-32 3.8 05:22:48 10° NNW 05:26:33 48° NE 05:28:40 23° ESE
Cosmos 2333 Rocket 2.6 05:20:48 10° NNW 05:26:34 68° WSW 05:32:22 10° SSE
STARLINK-1299 4.4 05:22:25 10° WNW 05:26:36 49° SSW 05:29:38 18° SE
STARLINK-1306 4.2 05:22:53 10° WNW 05:27:04 52° SSW 05:30:00 18° SE
Cosmos 2112 Rocket 4.0 05:22:16 10° NNW 05:27:34 75° ENE 05:32:54 10° SSE
STARLINK-1049 4.3 05:23:41 10° NNW 05:27:37 41° NE 05:29:49 22° E
Cosmos 405 3.0 05:24:18 10° S 05:27:54 87° W 05:31:27 10° N
STARLINK-40 3.8 05:24:29 10° NW 05:28:14 50° NE 05:30:18 24° ESE
Okean O Rocket 1.7 05:25:00 10° SSE 05:29:25 57° E 05:33:49 10° N
STARLINK-44 3.7 05:26:02 10° NW 05:29:48 52° NE 05:31:48 25° ESE
H-2A R/B 2.8 05:26:00 10° SSE 05:29:51 58° E 05:33:43 10° N
STARLINK-1281 4.2 05:26:09 10° WNW 05:30:17 52° SSW 05:33:02 20° SE
Cosmos 1605 Rocket 4.0 05:24:28 10° N 05:30:43 89° W 05:36:57 10° S
Meteor 1-10 Rocket 4.3 05:25:06 10° SSW 05:30:48 84° W 05:36:33 10° N
Cosmos 2278 Rocket 2.3 05:25:57 10° SSW 05:31:35 56° ESE 05:37:10 10° NE
STARLINK-37 3.6 05:27:50 10° NW 05:31:39 58° NE 05:33:38 26° ESE
STARLINK-29 2.9 05:28:50 10° SW 05:32:09 66° SSE 05:33:59 24° ENE
STARLINK-1051 4.1 05:28:35 10° NNW 05:32:35 45° NE 05:34:37 25° ESE
Sich 1 3.1 05:28:39 10° N 05:33:03 89° WSW 05:37:34 10° S
STARLINK-36 3.7 05:29:17 10° NW 05:33:05 55° NE 05:34:57 27° ESE
STARLINK-68 3.5 05:31:05 10° NW 05:34:55 63° NE 05:36:47 28° ESE
STARLINK-1310 4.3 05:31:11 10° WNW 05:35:17 49° SSW 05:37:49 21° SE
STARLINK-63 3.5 05:32:40 10° NW 05:36:31 62° NE 05:38:18 29° ESE
SMAP 3.4 05:32:35 10° SSE 05:37:08 44° E 05:41:36 10° N
STARLINK-35 3.5 05:34:11 10° NW 05:38:01 61° NE 05:39:43 30° ESE
STARLINK-51 3.5 05:35:53 10° NW 05:39:43 64° NE 05:41:22 32° ESE
STARLINK-1319 4.4 05:36:14 10° WNW 05:40:17 46° SSW 05:42:36 23° SE
Cosmos 1346 Rocket 4.3 05:36:54 10° NW 05:40:35 36° WSW 05:44:21 10° S
STARLINK-30 3.5 05:37:29 10° NW 05:41:21 66° NE 05:42:55 33° ESE
STARLINK-1028 3.9 05:38:26 10° NW 05:42:32 54° NE 05:44:12 32° ESE
STARLINK-72 3.4 05:39:11 10° NW 05:43:03 68° NE 05:44:35 34° ESE
Cosmos 2360 Rocket 4.3 05:39:38 10° W 05:44:01 22° SW 05:48:27 10° S
STARLINK-1277 4.5 05:41:14 10° W 05:45:16 43° SSW 05:47:22 24° SSE
STARLINK-59 3.4 05:42:30 10° NW 05:46:23 76° NE 05:47:48 37° ESE
STARLINK-1021 3.8 05:43:21 10° NW 05:47:29 59° NE 05:48:58 36° ESE
Cosmos 2056 Rocket 3.4 05:42:20 10° SSW 05:47:43 69° ESE 05:52:57 10° NNE
STARLINK-56 3.4 05:44:04 10° NW 05:47:57 75° NE 05:49:17 39° ESE
STARLINK-73 3.4 05:45:43 10° NW 05:49:35 77° NE 05:50:52 40° ESE
ATLAS 2AS CENTAUR R/B 3.6 05:44:16 10° SSW 05:49:37 26° SE 05:51:07 24° SE
STARLINK-38 3.3 05:47:22 10° NW 05:51:14 80° NE 05:52:27 42° ESE
STARLINK-1019 3.7 05:48:18 10° NW 05:52:28 65° NE 05:53:46 40° ESE
NOAA 6 4.3 05:47:28 10° S 05:52:38 68° WSW 05:57:44 10° NNW
STARLINK-24 3.5 05:48:44 10° NW 05:52:48 86° NE 05:54:10 41° ESE
CZ-2C R/B 3.6 05:53:39 27° SE 05:53:39 27° SE 05:57:26 10° S
STARLINK-65 3.3 05:49:00 10° NW 05:52:54 82° NE 05:54:03 44° ESE
STARLINK-53 3.4 05:50:54 10° NW 05:54:49 88° NNE 05:55:57 45° SE
STARLINK-25 3.2 05:52:30 10° NW 05:56:15 84° NNE 05:57:08 51° ESE
STARLINK-1012 3.6 05:53:15 10° NW 05:57:25 71° NE 05:58:32 46° ESE
Cosmos 1818 3.5 05:52:09 10° NNW 05:57:34 84° ENE 06:00:42 26° SE
Cosmos 1933 Rocket 4.2 05:55:29 10° NNE 05:58:47 34° ENE 05:58:47 34° ENE
Cosmos 1666 Rocket 3.9 05:55:11 10° NNW 05:59:33 68° W 06:03:58 10° S
Cosmos 1633 Rocket 3.2 05:57:12 10° N 06:01:40 79° W 06:06:12 10° S
Shenzhou-11 Module 2.5 05:59:12 10° W 06:01:12 48° WNW 06:01:12 48° WNW
YAOGAN 6 2.5 06:03:03 57° ESE 06:03:34 65° E 06:07:13 10° N
BREEZE-M DEB (TANK) 4.0 06:00:07 10° WSW 06:04:25 79° NNW 06:22:21 10° NE
Meteor 1-25 Rocket 4.3 06:00:08 10° NNE 06:05:28 48° E 06:07:52 30° SE
Centaur D AC-29 3.8 06:00:04 10° WNW 06:06:21 18° NNW 06:09:35 10° NNE
Cosmos 2219 Rocket 3.6 06:01:59 10° WNW 06:07:13 36° SW 06:12:31 10° S
STARLINK-1026 3.5 06:03:10 10° NW 06:07:23 84° NE 06:08:07 59° ESE
Cosmos 2100 Rocket 3.9 06:01:16 10° N 06:07:26 72° E 06:13:40 10° SSE
STARLINK-52 3.2 06:05:03 10° WSW 06:08:19 66° NW 06:08:30 64° NNW
STARLINK-50 3.6 06:04:53 10° WNW 06:08:58 78° SSW 06:09:41 58° SE
STARLINK-1338 4.2 06:07:19 10° SW 06:10:05 37° S 06:10:05 37° S
STARLINK-1013 3.5 06:08:06 10° NW 06:12:18 90° W 06:12:52 67° SE
FALCON 9 DEB 3.2 06:09:38 10° SW 06:12:55 75° SW 06:12:55 75° SW
STARLINK-1371 4.3 06:12:45 10° SW 06:15:21 36° SSW 06:15:21 36° SSW
STARLINK-1009 3.5 06:13:05 10° NW 06:17:17 84° SW 06:17:39 73° SSE
Cosmos 1452 Rocket 3.9 06:12:59 10° S 06:17:28 44° SE 06:17:28 44° SE
STARLINK-1341 4.4 06:15:30 10° SW 06:18:02 36° SSW 06:18:02 36° SSW
SL-4 R/B 4.2 06:17:35 10° W 06:20:38 23° NW 06:23:52 10° N
Cosmos 1420 Rocket 3.9 06:16:10 10° SSW 06:21:34 72° ESE 06:24:07 31° NE
STARLINK-1374 4.4 06:18:03 10° SW 06:20:30 35° SSW 06:20:30 35° SSW
Cosmos 1980 4.0 06:16:22 10° NNW 06:22:02 68° WSW 06:25:38 23° SSE
STARLINK-1015 3.6 06:18:05 10° WNW 06:22:17 78° SW 06:22:26 76° S
CZ-4C R/B 4.5 06:21:21 10° SSW 06:23:29 12° S 06:24:38 11° SSE
Cosmos 2061 Rocket 3.9 06:18:04 10° N 06:24:15 62° E 06:28:12 23° SSE
Cosmos 1238 Rocket 3.9 06:20:18 10° NNW 06:24:42 46° W 06:27:18 19° SSW
Envisat 3.2 06:21:20 11° S 06:26:14 70° WSW 06:31:19 10° NNW
STARLINK-1016 3.7 06:23:04 10° WNW 06:27:13 72° SW 06:27:13 72° SW
Meteor 1-20 Rocket 4.1 06:23:27 10° N 06:29:12 79° E 06:32:29 28° SSE
Feng Yun 1-1 Rocket 4.0 06:27:58 37° SSE 06:30:14 80° ENE 06:35:43 10° NNW
Cosmos 2297 4.1 06:26:07 10° SSW 06:30:33 43° SSE 06:30:33 43° SSE
STARLINK-1008 3.9 06:28:04 10° WNW 06:32:01 65° SW 06:32:01 65° SW
Helios 1A Rocket 3.1 06:33:10 65° SW 06:33:23 67° WSW 06:37:24 10° NNW
STARLINK-81 4.2 06:30:13 10° WNW 06:33:34 49° WSW 06:33:34 49° WSW
Cosmos 2016 Rocket 3.9 06:28:30 10° N 06:34:45 74° E 06:39:15 21° SSE
Cosmos 1461 4.0 06:31:32 10° SW 06:35:15 39° WNW 06:36:32 29° NNW
Cosmos 1864 Rocket 4.4 06:29:35 10° N 06:35:39 63° E 06:36:18 59° ESE
STARLINK-54 4.4 06:31:55 10° WNW 06:35:11 45° SW 06:35:11 45° SW
Cosmos 2173 Rocket 4.1 06:30:21 10° NNW 06:36:38 74° W 06:42:56 10° S
USA 234 4.5 06:34:22 24° SSE 06:36:50 31° SSW 06:42:25 10° WSW
STARLINK-77 4.4 06:33:19 10° WNW 06:36:31 45° WSW 06:36:31 45° WSW
STARLINK-1014 4.1 06:33:05 10° WNW 06:36:51 58° WSW 06:36:51 58° WSW
STARLINK-1010 4.3 06:36:39 10° WNW 06:40:25 53° WSW 06:40:25 53° WSW
Lacrosse 5 rocket 2.2 06:37:09 10° NW 06:40:18 47° NNW 06:40:18 47° NNW
STARLINK-1025 4.4 06:38:07 10° WNW 06:41:36 50° WSW 06:41:36 50° WSW
Cosmos 1459 Rocket 4.3 06:37:37 10° NNW 06:43:48 66° W 06:50:11 10° S
ATLAS 5 CENTAUR R/B 2.8 06:36:48 10° NW 06:43:58 71° SW 06:46:25 42° SSE
Cosmos 1816 Rocket 4.4 06:39:19 10° S 06:54:02 - NNE 06:45:21 67° ESE
SL-24 R/B - RUBIN 2 4.0 06:43:49 10° NW 06:48:23 66° W 06:48:23 66° W
Cosmos 371 Rocket 4.4 06:44:45 10° SSW 06:47:37 36° SSW 06:47:37 36° SSW
Cosmos 2237 Rocket 3.2 06:44:51 10° NW 06:50:15 44° WSW 06:52:55 27° S
Cosmos 1943 Rocket 4.1 06:47:38 10° S 06:48:59 17° S 06:48:59 17° S
Cosmos 2369 Rocket 4.3 06:49:33 10° S 06:50:30 14° S 06:50:30 14° S
ATLAS CENTAUR R/B 4.3 06:54:34 10° SSW 06:54:46 11° SSW 06:54:46 11° SSW
BREEZE-M DEB (TANK) 4.1 06:44:13 10° NW 06:59:29 75° NNE 06:59:38 74° NE
Okean O Rocket 4.4 07:02:35 10° SSW 07:05:18 16° WSW 07:08:01 10° W
SL-16 R/B 2.6 06:59:58 10° NNW 07:04:24 56° NNW 07:04:24 56° NNW
BREEZE M DEB (TANK) 3.9 06:52:52 10° WSW 07:12:57 79° SSE 07:13:12 78° SE
Cosmos 1725 Rocket 4.2 07:06:50 10° NNW 07:13:06 71° W 07:13:48 65° SW
NOSS 3-4 (A) 4.1 07:07:52 10° SSW 07:13:16 50° S 07:13:16 50° S
NOSS 3-4 (C) 4.2 07:07:58 10° SSW 07:13:20 49° S 07:13:20 49° S
Cosmos 2278 Rocket 4.5 07:10:56 10° SW 07:15:12 22° W 07:19:29 10° NNW
CZ-2C R/B 4.3 07:35:10 29° SW 07:35:10 29° SW 07:38:09 10° SSW
ATLAS 2AS CENTAUR R/B 3.6 07:34:35 10° SW 07:38:35 40° SW 07:38:35 40° SW
